Regional Weather Roundup
Issued by NWS Kansas City/Pleasant Hill, MO

Home | Current Version | Previous Version | Text Only | Print | Product List | Glossary On
Versions: 1 2 3 4 5 6 7 8 9 10 11 12 13 14 15 16 17 18 19 20 21 22 23 24 25 26 27 28 29 30 31 32 33 34 35 36 37 38 39 40 41 42 43 44 45 46 47 48 49 50
000
ASUS43 KEAX 272210
RWREAX

WEATHER ROUNDUP FOR EASTERN KANSAS AND NORTHWEST MISSOURI
NATIONAL WEATHER SERVICE KANSAS CITY/PLEASANT HILL MO
500 PM CDT THU AUG 27 2015

KSZ040-057-103>105-MOZ028-029-037-043-272300-
...KANSAS CITY METROPOLITAN AREA...

CITY           SKY/WX    TMP DP  RH WIND       PRES   REMARKS
K.C. INTL      PTSUNNY   76  65  68 S17       30.01F
K.C. DOWNTOWN  FAIR      75  66  73 S9        30.01F
LEES SUMMIT    FAIR      72  64  76 S10       30.03F
OLATHE - IXD   FAIR      73  68  84 S15G24    30.02F
OLATHE - OJC   FAIR      69  67  93 S10       30.01F
LAWRENCE       FAIR      78  67  68 SE12      30.00F

$$

MOZ001>008-011>017-020>025-030>033-038>040-044>046-053-054-272300-
...NORTHERN AND CENTRAL MISSOURI...

CITY           SKY/WX    TMP DP  RH WIND       PRES   REMARKS
ST. JOSEPH     FAIR      78  67  68 S13       29.98F
MOSBY          FAIR      73  64  73 SE8       30.00F
WARRENSBURG    FAIR      72  63  73 SE9       30.01F
WHITEMAN AFB   PTSUNNY   73  63  69 SW7       30.02F
CLINTON          N/A     75  66  73 SE6       30.05F HAZE
SEDALIA        FAIR      75  64  68 S14G24    30.02F
WARSAW         NOT AVBL
CHILLICOTHE      N/A     77  63  61 S10       30.07R
KIRKSVILLE     FAIR      75  60  59 S14       30.07S

$$

MOZ041-047>049-056>058-063>065-088>090-097-272300-
...EASTERN AND SOUTHERN MISSOURI...

CITY           SKY/WX    TMP DP  RH WIND       PRES   REMARKS
ST. LOUIS INTL PTSUNNY   77  55  46 E7        30.11F
SPIRIT OF STL  PTSUNNY   77  60  55 CALM      30.09F
COLUMBIA       FAIR      73  62  68 SE10      30.05F
JEFFERSON CITY FAIR      77  60  55 SE7       30.06F
ROLLA          FAIR      76  57  51 SE5       30.10F
OSAGE BEACH    FAIR      75  63  64 E5        30.10F
SPRINGFIELD    FAIR      80  62  54 NE7       30.09F
BRANSON        CLOUDY    79  63  57 E6        30.11S
JOPLIN         FAIR      78  67  68 NE10      30.04F
WEST PLAINS    FAIR      77  56  48 VRB3      30.12F

$$

IAZ060-094-KSZ022-034>040-054-083-096-NEZ052-066-093-272300-
...KANSAS...SOUTHEAST NEBRASKA AND IOWA...

CITY           SKY/WX    TMP DP  RH WIND       PRES   REMARKS
TOPEKA         FAIR      77  66  68 S10G21    29.99F
MANHATTAN      FAIR      90  62  39 S15G31    29.94F HX  90
EMPORIA        FAIR      75  66  73 SE15G23   30.01S
CHANUTE        FAIR      77  69  76 E10G21    30.03F
WICHITA        PTSUNNY   89  64  43 S23G31    29.95F HX  90
OMAHA          CLOUDY    83  66  56 S20       29.93S
LINCOLN        FAIR      83  66  56 S22G33    29.91S
FALLS CITY     FAIR      80  66  62 S13       29.95F
LAMONI         FAIR      75  63  66 S13G20    30.03F
DES MOINES     CLOUDY    75  60  59 SE12      30.03S

$$



USA.gov is the U.S. government's official web portal to all federal, state and local government web resources and services.